{"data":{"norad_id":48650,"epoch":"2026-09-18T19:34:59.219616Z","epoch_age_seconds":182781,"freshness":"STALE","line1":"1 48650U 21044N   26261.81596319 -.00000158  00000+0  66926-5 0  9991","line2":"2 48650  53.1596 295.1749 0001708  81.8446 278.2750 15.31700467293412","mean_motion":15.31700467,"eccentricity":0.0001708,"inclination_deg":53.1596,"raan_deg":295.1749,"arg_perigee_deg":81.8446,"mean_anomaly_deg":278.275,"bstar":6.6926e-6,"rev_number":29341,"period_min":94.013159297418,"perigee_km":469.56881517029,"apogee_km":471.90839107632,"semimajor_km":6848.8756031233,"source":"CELESTRAK","updated_at":"2026-09-20T09:00:39.141585Z"}}